Alexandria, LA

3:57 AM CDT on June 25, 2017 (GMT -0500)
Alexandria International

Weather History for KAEX - December, 2010

Change the Weather History Date:

Monday, December 27, 2010

  Actual Average Record
Temperature  
Mean Temperature 34 °F 49 °F  
Max Temperature 47 °F 59 °F 80 °F (2015)
Min Temperature 20 °F 40 °F 16 °F (1892)
Degree Days  
Heating Degree Days 31 16  
Month to date heating degree days 474 401  
Since 1 July heating degree days 765 726  
Moisture  
Dew Point 21 °F    
Average Humidity 63    
Maximum Humidity 92    
Minimum Humidity 34    
Precipitation  
Precipitation 0.00 in 0.16 in 4.63 in (1942)
Month to date precipitation 0.47 5.59  
Year to date precipitation 36.13 55.39  
Snow  
Snow 0.00 in - 0.00 in ()
Month to date snowfall 0.0  
Since 1 July snowfall 0.0  
Snow Depth 0.00 in    
Sea Level Pressure  
Sea Level Pressure 30.38 in    
Wind  
Wind Speed 2 mph (ESE)    
Max Wind Speed 9 mph    
Max Gust Speed 12 mph    
Visibility 10 miles    
Events      
T = Trace of Precipitation, MM = Missing Value Source: NWS Daily Summary

Daily Weather History Graph

Daily Weather History Graph

Search for Another Location

Airport or City:

Trip Planner

Search our weather history database for the weather conditions in past years. The results will help you decide how hot, cold, wet, or windy it might be!

Date:

Astronomy

Dec. 27, 2010 Rise Set
Actual Time 7:07 AM CST 5:15 PM CST
Civil Twilight 6:40 AM CST 5:41 PM CST
Nautical Twilight 6:10 AM CST 6:12 PM CST
Astronomical Twilight 5:40 AM CST 6:41 PM CST
Moon No Moon Rise 11:25 AM CST (12/27)
Length of Visible Light 11h 00m
Length of Day
10h 07m
Waning Gibbous, 55% of the Moon is Illuminated
Dec 27
Waning Gibbous
Dec 27
Last Quarter
Jan 4
New
Jan 12
First Quarter
Jan 19
Full

Hourly Weather History & Observations

Time (CST) Temp. Windchill Dew Point Humidity Pressure Visibility Wind Dir Wind Speed Gust Speed Precip Events Conditions
12:53 AM 25.0 °F - 21.0 °F 85% 30.37 in 10.0 mi Calm Calm - N/A   Clear
1:53 AM 24.8 °F - 21.2 °F 86% 30.37 in 10.0 mi Calm Calm - N/A   Clear
2:53 AM 23.0 °F - 19.9 °F 88% 30.40 in - Calm Calm - N/A   Clear
3:53 AM 21.9 °F - 19.0 °F 89% 30.39 in - Calm Calm - N/A   Clear
4:53 AM 21.9 °F - 19.9 °F 92% 30.39 in - Calm Calm - N/A   Clear
5:53 AM 21.9 °F - 19.0 °F 89% 30.41 in - Calm Calm - N/A   Clear
6:53 AM 21.0 °F - 18.0 °F 88% 30.42 in - Calm Calm - N/A   Clear
7:53 AM 23.0 °F - 19.0 °F 85% 30.44 in - Calm Calm - N/A   Clear
8:53 AM 30.9 °F 27.5 °F 25.0 °F 79% 30.44 in 10.0 mi East 3.5 mph - N/A   Clear
9:53 AM 36.0 °F 30.3 °F 23.0 °F 59% 30.45 in 10.0 mi East 6.9 mph - N/A   Clear
10:53 AM 39.0 °F 35.7 °F 21.0 °F 49% 30.45 in 10.0 mi Variable 4.6 mph - N/A   Clear
11:53 AM 41.0 °F - 19.0 °F 41% 30.42 in 10.0 mi Calm Calm - N/A   Clear
12:53 PM 42.1 °F 40.2 °F 19.9 °F 41% 30.39 in 10.0 mi SE 3.5 mph - N/A   Clear
1:53 PM 44.1 °F 40.1 °F 19.9 °F 38% 30.38 in 10.0 mi SSE 6.9 mph - N/A   Clear
2:53 PM 46.0 °F 43.9 °F 19.0 °F 34% 30.37 in 10.0 mi Variable 4.6 mph - N/A   Clear
3:53 PM 45.0 °F 42.6 °F 19.0 °F 36% 30.35 in 10.0 mi SE 4.6 mph - N/A   Clear
4:53 PM 43.0 °F 40.3 °F 19.0 °F 38% 30.34 in 10.0 mi East 4.6 mph - N/A   Clear
5:53 PM 39.0 °F 36.8 °F 21.0 °F 49% 30.34 in 10.0 mi ESE 3.5 mph - N/A   Clear
6:53 PM 37.0 °F - 21.9 °F 54% 30.35 in 10.0 mi Calm Calm - N/A   Clear
7:53 PM 35.1 °F - 21.0 °F 57% 30.35 in 10.0 mi Calm Calm - N/A   Clear
8:53 PM 30.0 °F 25.2 °F 21.9 °F 72% 30.34 in 10.0 mi East 4.6 mph - N/A   Clear
9:53 PM 33.1 °F 30.0 °F 23.0 °F 66% 30.35 in 10.0 mi SE 3.5 mph - N/A   Clear
10:53 PM 28.9 °F - 23.0 °F 78% 30.35 in 10.0 mi Calm Calm - N/A   Clear
11:53 PM 28.0 °F - 21.9 °F 78% 30.35 in 10.0 mi Calm Calm - N/A   Clear